TimeCDT,TemperatureF,Dew PointF,Humidity,Sea Level PressureIn,VisibilityMPH,Wind Direction,Wind SpeedMPH,Gust SpeedMPH,PrecipitationIn,Events,Conditions,WindDirDegrees,DateUTC
12:15 AM,75.7,67.1,74,30.08,10.0,SE,9.2,-,N/A,,Clear,140,2012-10-05 05:15:00
12:35 AM,75.0,67.3,77,30.08,10.0,SE,8.1,-,N/A,,Clear,140,2012-10-05 05:35:00
12:55 AM,74.5,67.5,79,30.08,10.0,SE,8.1,-,N/A,,Clear,140,2012-10-05 05:55:00
1:15 AM,74.1,67.6,80,30.07,10.0,SSE,8.1,-,N/A,,Clear,150,2012-10-05 06:15:00
1:35 AM,73.6,67.8,82,30.07,10.0,SE,8.1,-,N/A,,Clear,140,2012-10-05 06:35:00
1:55 AM,73.2,68.0,84,30.06,10.0,SE,8.1,-,N/A,,Clear,140,2012-10-05 06:55:00
2:15 AM,72.5,67.8,85,30.06,10.0,SSE,6.9,-,N/A,,Clear,150,2012-10-05 07:15:00
2:35 AM,72.0,67.6,86,30.06,10.0,SSE,5.8,-,N/A,,Clear,150,2012-10-05 07:35:00
2:55 AM,71.6,67.8,88,30.06,10.0,SSE,6.9,-,N/A,,Clear,150,2012-10-05 07:55:00
3:15 AM,71.1,67.6,89,30.05,10.0,SSE,5.8,-,N/A,,Clear,150,2012-10-05 08:15:00
3:35 AM,70.5,67.5,90,30.05,10.0,SSE,5.8,-,N/A,,Clear,150,2012-10-05 08:35:00
3:55 AM,70.0,67.3,91,30.05,10.0,SSE,4.6,-,N/A,,Clear,150,2012-10-05 08:55:00
4:15 AM,69.6,67.1,92,30.05,10.0,SE,5.8,-,N/A,,Clear,140,2012-10-05 09:15:00
4:35 AM,69.1,66.9,93,30.04,10.0,SSE,5.8,-,N/A,,Clear,150,2012-10-05 09:35:00
4:55 AM,68.7,66.7,93,30.04,7.0,SSE,4.6,-,N/A,,Clear,150,2012-10-05 09:55:00
5:15 AM,68.2,66.6,95,30.05,7.0,SE,4.6,-,N/A,,Clear,140,2012-10-05 10:15:00
5:35 AM,68.0,66.2,94,30.05,7.0,SE,4.6,-,N/A,,Clear,140,2012-10-05 10:35:00
5:55 AM,67.6,66.2,95,30.06,7.0,SE,3.5,-,N/A,,Clear,130,2012-10-05 10:55:00
6:15 AM,67.5,66.2,96,30.06,5.0,SE,4.6,-,N/A,,Clear,130,2012-10-05 11:15:00
6:35 AM,67.3,66.0,96,30.06,5.0,SE,3.5,-,N/A,,Clear,140,2012-10-05 11:35:00
6:55 AM,67.1,65.7,95,30.06,5.0,SE,5.8,-,N/A,,Clear,130,2012-10-05 11:55:00
7:15 AM,67.1,65.8,96,30.07,5.0,ESE,5.8,-,N/A,,Clear,120,2012-10-05 12:15:00
7:35 AM,66.9,65.5,95,30.07,3.0,SE,5.8,-,N/A,,Clear,130,2012-10-05 12:35:00
7:55 AM,66.7,65.5,96,30.08,2.5,SE,5.8,-,N/A,,Clear,130,2012-10-05 12:55:00
8:15 AM,67.3,66.0,96,30.08,4.0,SE,5.8,-,N/A,,Clear,130,2012-10-05 13:15:00
8:35 AM,68.2,66.9,96,30.09,7.0,SSE,9.2,-,N/A,,Clear,150,2012-10-05 13:35:00
8:55 AM,69.8,68.0,94,30.09,10.0,SSE,10.4,16.1,N/A,,Clear,150,2012-10-05 13:55:00
9:15 AM,72.0,67.8,87,30.10,10.0,SSE,9.2,-,N/A,,Clear,150,2012-10-05 14:15:00
9:35 AM,73.8,68.0,82,30.10,10.0,SSE,11.5,-,N/A,,Clear,150,2012-10-05 14:35:00
9:55 AM,75.4,68.4,79,30.11,10.0,SSE,11.5,-,N/A,,Clear,160,2012-10-05 14:55:00
10:15 AM,76.8,68.4,75,30.11,10.0,SSE,13.8,17.3,N/A,,Clear,160,2012-10-05 15:15:00
10:35 AM,78.1,68.0,71,30.11,10.0,SSE,12.7,20.7,N/A,,Clear,150,2012-10-05 15:35:00
10:55 AM,79.5,67.3,66,30.10,10.0,SSE,13.8,18.4,N/A,,Clear,150,2012-10-05 15:55:00
11:35 AM,82.4,65.1,56,30.10,10.0,SSE,15.0,18.4,N/A,,Clear,150,2012-10-05 16:35:00
12:15 PM,84.4,63.9,50,30.09,10.0,SE,15.0,19.6,N/A,,Clear,140,2012-10-05 17:15:00
12:35 PM,85.5,61.5,44,30.08,10.0,SSE,8.1,19.6,N/A,,Clear,150,2012-10-05 17:35:00
12:55 PM,86.2,61.0,43,30.07,10.0,SE,11.5,16.1,N/A,,Clear,140,2012-10-05 17:55:00
1:35 PM,87.6,59.4,38,30.05,10.0,South,6.9,-,N/A,,Clear,170,2012-10-05 18:35:00
1:55 PM,88.3,59.2,37,30.04,10.0,SE,9.2,-,N/A,,Clear,140,2012-10-05 18:55:00
2:15 PM,88.7,58.6,36,30.03,10.0,South,8.1,-,N/A,,Clear,180,2012-10-05 19:15:00
2:35 PM,89.2,58.5,35,30.02,10.0,SSE,6.9,-,N/A,,Clear,160,2012-10-05 19:35:00
2:55 PM,89.8,57.9,34,30.01,10.0,SE,9.2,-,N/A,,Clear,140,2012-10-05 19:55:00
3:15 PM,90.3,57.6,33,30.00,10.0,SSE,10.4,-,N/A,,Clear,160,2012-10-05 20:15:00
3:35 PM,90.7,56.8,32,29.99,10.0,SE,10.4,16.1,N/A,,Clear,140,2012-10-05 20:35:00
3:55 PM,91.2,56.1,30,29.98,10.0,SE,8.1,-,N/A,,Clear,130,2012-10-05 20:55:00
4:15 PM,91.2,55.9,30,29.98,10.0,SE,8.1,-,N/A,,Clear,140,2012-10-05 21:15:00
4:35 PM,91.6,55.2,29,29.97,10.0,SE,6.9,-,N/A,,Clear,140,2012-10-05 21:35:00
4:55 PM,91.6,55.0,29,29.96,10.0,SE,9.2,-,N/A,,Clear,130,2012-10-05 21:55:00
5:15 PM,91.6,54.1,28,29.96,10.0,SE,6.9,-,N/A,,Clear,140,2012-10-05 22:15:00
5:35 PM,91.6,55.2,29,29.96,10.0,SE,6.9,-,N/A,,Clear,140,2012-10-05 22:35:00
5:55 PM,91.2,55.9,30,29.96,10.0,SE,6.9,-,N/A,,Clear,130,2012-10-05 22:55:00
6:15 PM,90.5,56.1,31,29.96,10.0,SE,9.2,-,N/A,,Clear,130,2012-10-05 23:15:00
6:35 PM,89.4,55.8,32,29.96,10.0,SE,8.1,-,N/A,,Clear,130,2012-10-05 23:35:00
6:55 PM,88.0,57.2,35,29.96,10.0,SE,5.8,-,N/A,,Clear,130,2012-10-05 23:55:00
7:15 PM,86.0,58.1,39,29.96,10.0,SE,5.8,-,N/A,,Clear,130,2012-10-06 00:15:00
7:35 PM,84.4,58.3,41,29.96,10.0,SE,5.8,-,N/A,,Clear,140,2012-10-06 00:35:00
7:55 PM,82.8,58.6,44,29.97,10.0,SE,4.6,-,N/A,,Clear,140,2012-10-06 00:55:00
8:15 PM,82.6,61.2,48,29.98,10.0,ESE,11.5,-,N/A,,Clear,120,2012-10-06 01:15:00
8:35 PM,83.3,63.5,51,29.98,10.0,ESE,8.1,-,N/A,,Clear,110,2012-10-06 01:35:00
8:55 PM,81.7,62.8,53,29.99,10.0,ESE,10.4,-,N/A,,Clear,110,2012-10-06 01:55:00
9:15 PM,80.2,61.9,53,30.00,10.0,ESE,9.2,-,N/A,,Clear,110,2012-10-06 02:15:00
9:35 PM,79.2,61.7,55,30.00,10.0,ESE,10.4,-,N/A,,Clear,120,2012-10-06 02:35:00
9:55 PM,78.1,62.1,58,30.01,10.0,ESE,10.4,-,N/A,,Clear,120,2012-10-06 02:55:00
10:35 PM,76.1,64.0,66,30.02,10.0,ESE,10.4,-,N/A,,Clear,120,2012-10-06 03:35:00
10:55 PM,75.2,64.8,70,30.01,10.0,ESE,10.4,-,N/A,,Clear,120,2012-10-06 03:55:00
11:15 PM,74.5,65.5,73,30.01,10.0,ESE,9.2,-,N/A,,Clear,120,2012-10-06 04:15:00
11:35 PM,73.8,65.8,76,30.01,10.0,SE,6.9,-,N/A,,Clear,130,2012-10-06 04:35:00
11:55 PM,72.9,65.8,79,30.01,10.0,SE,5.8,-,N/A,,Clear,130,2012-10-06 04:55:00